| time (UTC) | temp F | wind direction | speed MPH | gust MPH | rain 1hr in | rain 24hr in | rain mn in | humidity % | barometer mb |
| 20260507130047 | 62 | 0 | 0.0 | 0.0 | 0.00 | 0.00 | 0.00 | 39 | 993.3 |
| 20260507125426 | 62 | 0 | 0.0 | 0.0 | 0.00 | 0.00 | 0.00 | 38 | 993.4 |
| 20260507124526 | 62 | 0 | 0.0 | 0.0 | 0.00 | 0.00 | 0.00 | 38 | 993.3 |
| 20260507123626 | 63 | 40 | 0.0 | 5.0 | 0.00 | 0.00 | 0.00 | 37 | 993.2 |
| 20260507121826 | 63 | 42 | 0.0 | 4.0 | 0.00 | 0.00 | 0.00 | 37 | 993.2 |
| 20260507120027 | 64 | 42 | 0.0 | 4.0 | 0.00 | 0.00 | 0.00 | 36 | 993.2 |
| 20260507113626 | 64 | 40 | 2.0 | 6.0 | 0.00 | 0.00 | 0.00 | 37 | 993.4 |
| 20260507112726 | 63 | 39 | 2.0 | 7.0 | 0.00 | 0.00 | 0.00 | 38 | 993.4 |
| 20260507111826 | 63 | 39 | 2.0 | 6.0 | 0.00 | 0.00 | 0.00 | 39 | 993.4 |
| 20260507110047 | 61 | 0 | 0.0 | 0.0 | 0.00 | 0.00 | 0.00 | 41 | 993.6 |
| 20260507103626 | 61 | 0 | 0.0 | 0.0 | 0.00 | 0.00 | 0.00 | 42 | 993.9 |
| 20260507100947 | 61 | 0 | 0.0 | 0.0 | 0.00 | 0.00 | 0.00 | 42 | 993.9 |
| 20260507100026 | 61 | 0 | 0.0 | 0.0 | 0.00 | 0.00 | 0.00 | 42 | 993.9 |
| 20260507094546 | 61 | 0 | 0.0 | 0.0 | 0.00 | 0.00 | 0.00 | 42 | 993.8 |
| 20260507093625 | 61 | 0 | 0.0 | 0.0 | 0.00 | 0.00 | 0.00 | 41 | 993.9 |
| 20260507092747 | 61 | 0 | 0.0 | 0.0 | 0.00 | 0.00 | 0.00 | 41 | 993.9 |
| 20260507091825 | 61 | 0 | 0.0 | 0.0 | 0.00 | 0.00 | 0.00 | 41 | 993.8 |
| 20260507090046 | 61 | 0 | 0.0 | 0.0 | 0.00 | 0.00 | 0.00 | 40 | 993.7 |
| 20260507084526 | 62 | 0 | 0.0 | 0.0 | 0.00 | 0.00 | 0.00 | 39 | 993.7 |
| 20260507081825 | 63 | 0 | 0.0 | 0.0 | 0.00 | 0.00 | 0.00 | 38 | 994.0 |
| 20260507080026 | 63 | 0 | 0.0 | 0.0 | 0.00 | 0.00 | 0.00 | 38 | 994.0 |
| 20260507074525 | 64 | 0 | 0.0 | 0.0 | 0.00 | 0.00 | 0.00 | 37 | 994.0 |
| 20260507064525 | 64 | 0 | 0.0 | 0.0 | 0.00 | 0.00 | 0.00 | 37 | 994.0 |
| 20260507063625 | 64 | 0 | 0.0 | 0.0 | 0.00 | 0.00 | 0.00 | 36 | 994.0 |
| 20260507062725 | 64 | 0 | 0.0 | 0.0 | 0.00 | 0.00 | 0.00 | 36 | 993.9 |
| 20260507061825 | 65 | 0 | 0.0 | 0.0 | 0.00 | 0.00 | 0.00 | 36 | 993.9 |
| 20260507054525 | 66 | 0 | 0.0 | 0.0 | 0.00 | 0.00 | 0.00 | 35 | 993.9 |
| 20260507052725 | 66 | 0 | 0.0 | 0.0 | 0.00 | 0.00 | 0.00 | 34 | 994.0 |
| 20260507050026 | 68 | 0 | 0.0 | 0.0 | 0.00 | 0.00 | 0.00 | 34 | 993.9 |
| 20260507044525 | 68 | 0 | 0.0 | 0.0 | 0.00 | 0.00 | 0.00 | 32 | 993.8 |
| 20260507043625 | 69 | 0 | 0.0 | 0.0 | 0.00 | 0.00 | 0.00 | 32 | 993.7 |
| 20260507040925 | 71 | 0 | 0.0 | 0.0 | 0.00 | 0.00 | 0.00 | 31 | 993.5 |
| 20260507033625 | 74 | 0 | 0.0 | 0.0 | 0.00 | 0.00 | 0.00 | 28 | 993.1 |
| 20260507031825 | 76 | 0 | 0.0 | 0.0 | 0.00 | 0.00 | 0.00 | 27 | 992.7 |
| 20260507030925 | 77 | 0 | 0.0 | 0.0 | 0.00 | 0.00 | 0.00 | 27 | 992.7 |
| 20260507025425 | 78 | 0 | 0.0 | 0.0 | 0.00 | 0.00 | 0.00 | 26 | 992.3 |
| 20260507022725 | 79 | 40 | 0.0 | 5.0 | 0.00 | 0.00 | 0.00 | 25 | 992.2 |
| 20260507020055 | 80 | 36 | 2.0 | 6.0 | 0.00 | 0.00 | 0.00 | 24 | 992.0 |
| 20260507015425 | 80 | 36 | 1.0 | 7.0 | 0.00 | 0.00 | 0.00 | 25 | 992.0 |
| 20260507014525 | 81 | 35 | 0.0 | 4.0 | 0.00 | 0.00 | 0.00 | 25 | 992.0 |
| 20260507012725 | 82 | 38 | 0.0 | 5.0 | 0.00 | 0.00 | 0.00 | 24 | 991.8 |
| 20260507004525 | 83 | 36 | 0.0 | 6.0 | 0.00 | 0.00 | 0.00 | 23 | 991.6 |
| 20260507003625 | 83 | 40 | 1.0 | 7.0 | 0.00 | 0.00 | 0.00 | 24 | 991.7 |
| 20260507002725 | 82 | 38 | 0.0 | 7.0 | 0.00 | 0.00 | 0.00 | 24 | 991.6 |
| 20260506234525 | 82 | 39 | 0.0 | 5.0 | 0.00 | 0.00 | 0.00 | 24 | 991.8 |
| 20260506233624 | 82 | 38 | 0.0 | 6.0 | 0.00 | 0.00 | 0.00 | 24 | 991.8 |
| 20260506231846 | 82 | 0 | 0.0 | 0.0 | 0.00 | 0.00 | 0.00 | 24 | 992.0 |
| 20260506230925 | 82 | 0 | 0.0 | 0.0 | 0.00 | 0.00 | 0.00 | 24 | 992.2 |
| 20260506230028 | 82 | 25 | 1.0 | 8.0 | 0.00 | 0.00 | 0.00 | 24 | 992.3 |
| 20260506223646 | 84 | 33 | 2.0 | 9.0 | 0.00 | 0.00 | 0.00 | 23 | 992.6 |
| 20260506213624 | 86 | 184 | 2.0 | 10.0 | 0.00 | 0.00 | 0.00 | 23 | 993.5 |
| 20260506210025 | 84 | 25 | 2.0 | 8.0 | 0.00 | 0.00 | 0.00 | 23 | 994.2 |
| 20260506202724 | 83 | 112 | 1.0 | 11.0 | 0.00 | 0.00 | 0.00 | 24 | 994.8 |
| 20260506201824 | 84 | 56 | 1.0 | 6.0 | 0.00 | 0.00 | 0.00 | 23 | 994.9 |
| 20260506200025 | 83 | 170 | 3.0 | 9.0 | 0.00 | 0.00 | 0.00 | 24 | 995.0 |
| 20260506195424 | 83 | 112 | 4.0 | 10.0 | 0.00 | 0.00 | 0.00 | 24 | 995.1 |
| 20260506194524 | 81 | 52 | 2.0 | 9.0 | 0.00 | 0.00 | 0.00 | 25 | 995.2 |
| 20260506193624 | 82 | 45 | 2.0 | 9.0 | 0.00 | 0.00 | 0.00 | 25 | 995.3 |
| 20260506192724 | 82 | 37 | 2.0 | 10.0 | 0.00 | 0.00 | 0.00 | 25 | 995.3 |
| 20260506191824 | 82 | 22 | 2.0 | 11.0 | 0.00 | 0.00 | 0.00 | 25 | 995.5 |
| 20260506190924 | 82 | 10 | 0.0 | 6.0 | 0.00 | 0.00 | 0.00 | 26 | 995.6 |
| 20260506190024 | 80 | 1 | 1.0 | 7.0 | 0.00 | 0.00 | 0.00 | 26 | 995.7 |
| 20260506184545 | 80 | 353 | 4.0 | 9.0 | 0.00 | 0.00 | 0.00 | 27 | 995.8 |
| 20260506180924 | 80 | 66 | 0.0 | 3.0 | 0.00 | 0.00 | 0.00 | 27 | 996.3 |
| 20260506180045 | 80 | 55 | 1.0 | 7.0 | 0.00 | 0.00 | 0.00 | 28 | 996.4 |
| 20260506174545 | 79 | 52 | 0.0 | 6.0 | 0.00 | 0.00 | 0.00 | 29 | 996.4 |
| 20260506172724 | 78 | 51 | 1.0 | 7.0 | 0.00 | 0.00 | 0.00 | 29 | 996.6 |
| 20260506171824 | 77 | 55 | 1.0 | 6.0 | 0.00 | 0.00 | 0.00 | 30 | 996.5 |
| 20260506170024 | 76 | 54 | 1.0 | 7.0 | 0.00 | 0.00 | 0.00 | 31 | 996.5 |
| 20260506164524 | 74 | 51 | 2.0 | 9.0 | 0.00 | 0.00 | 0.00 | 32 | 996.5 |
| 20260506163624 | 75 | 58 | 1.0 | 6.0 | 0.00 | 0.00 | 0.00 | 32 | 996.5 |
| 20260506162745 | 74 | 57 | 1.0 | 7.0 | 0.00 | 0.00 | 0.00 | 32 | 996.4 |
| 20260506161824 | 74 | 55 | 1.0 | 6.0 | 0.00 | 0.00 | 0.00 | 33 | 996.3 |
| 20260506160924 | 74 | 56 | 0.0 | 5.0 | 0.00 | 0.00 | 0.00 | 33 | 996.3 |
| 20260506160024 | 74 | 0 | 0.0 | 0.0 | 0.00 | 0.00 | 0.00 | 33 | 996.2 |
| 20260506150024 | 69 | 0 | 0.0 | 0.0 | 0.00 | 0.00 | 0.00 | 38 | 996.5 |
| 20260506144524 | 67 | 56 | 2.0 | 6.0 | 0.00 | 0.00 | 0.00 | 40 | 996.6 |
| 20260506143624 | 66 | 55 | 1.0 | 5.0 | 0.00 | 0.00 | 0.00 | 42 | 996.5 |
| 20260506141824 | 62 | 0 | 0.0 | 0.0 | 0.00 | 0.00 | 0.00 | 46 | 996.2 |
| 20260506135424 | 56 | 0 | 0.0 | 0.0 | 0.00 | 0.00 | 0.00 | 54 | 995.9 |
| 20260506134524 | 55 | 0 | 0.0 | 0.0 | 0.00 | 0.00 | 0.00 | 56 | 995.8 |
| 20260506133624 | 55 | 0 | 0.0 | 0.0 | 0.00 | 0.00 | 0.00 | 57 | 995.6 |